Philip, SD

3:55 PM MDT on August 24, 2019 (GMT -0600)
Philip

Weather History for KPHP - July, 2019

Change the Weather History Date:

Wednesday, July 17, 2019

  Actual Average Record
Temperature  
Mean Temperature 75 °F 75 °F  
Max Temperature 86 °F 90 °F 109 °F (1977)
Min Temperature 64 °F 60 °F 47 °F (1984)
Degree Days  
Heating Degree Days 0 0  
Month to date heating degree days 0 3  
Since 1 June heating degree days 58 66  
Since 1 July heating degree days 0 3  
Cooling Degree Days 10 10  
Month to date cooling degree days 149 151  
Year to date cooling degree days 252 301  
Since 1 June cooling degree days 246 274  
Growing Degree Days 24 (Base 50)    
Moisture  
Dew Point 66 °F    
Average Humidity 76    
Maximum Humidity 100    
Minimum Humidity 51    
Precipitation  
Precipitation 0.41 in 0.06 in 0.93 in (1974)
Month to date precipitation 2.63 1.29  
Year to date precipitation 14.65 11.14  
Sea Level Pressure  
Sea Level Pressure 29.78 in    
Wind  
Wind Speed 8 mph (ESE)    
Max Wind Speed 25 mph    
Max Gust Speed 43 mph    
Visibility 10 miles    
Events Rain , Thunderstorm    
T = Trace of Precipitation, MM = Missing Value Source: NWS Daily Summary

Daily Weather History Graph

Daily Weather History Graph

Search for Another Location

Airport or City:

Astronomy

Jul. 17, 2019 Rise Set
Actual Time 5:19 AM MDT 8:25 PM MDT
Civil Twilight 4:44 AM MDT 9:00 PM MDT
Nautical Twilight 3:59 AM MDT 9:44 PM MDT
Astronomical Twilight 3:05 AM MDT 10:38 PM MDT
Moon 9:14 PM MDT (7/17) 5:53 AM MDT (7/17)
Length of Visible Light 16h 16m
Length of Day
15h 06m
Full, 99% of the Moon is Illuminated
Jul 17
Full
Jul 24
Last Quarter
Jul 31
New
Aug 7
First Quarter
Aug 15
Full

Hourly Weather History & Observations

Time (MDT) Temp. Heat Index Dew Point Humidity Pressure Visibility Wind Dir Wind Speed Gust Speed Precip Events Conditions
12:10 AM 66.9 °F - 63.0 °F 87% 29.87 in 10.0 mi North 19.6 mph 31.1 mph 0.00 in Rain , Thunderstorm Light Rain
12:25 AM 68.0 °F - 64.9 °F 90% 29.87 in 10.0 mi NNE 13.8 mph 24.2 mph 0.00 in Thunderstorm Thunderstorm
12:55 AM 66.0 °F - 66.0 °F 100% 29.78 in 8.0 mi SE 12.7 mph - 0.07 in Rain , Thunderstorm Light Thunderstorms and Rain
1:03 AM 66.9 °F - 66.0 °F 97% 29.86 in 10.0 mi SSE 15.0 mph - 0.01 in Rain , Thunderstorm Light Thunderstorms and Rain
1:11 AM 66.9 °F - 66.0 °F 97% 29.83 in 10.0 mi ESE 18.4 mph 28.8 mph 0.01 in Thunderstorm Mostly Cloudy
1:40 AM 66.9 °F - 64.0 °F 90% 29.85 in 10.0 mi NE 5.8 mph - 0.01 in Rain , Thunderstorm Light Thunderstorms and Rain
1:55 AM 66.0 °F - 64.0 °F 93% 29.73 in 6.0 mi East 11.5 mph - 0.09 in Rain , Thunderstorm Thunderstorms and Rain
2:44 AM 64.9 °F - 64.9 °F 100% 29.85 in 3.0 mi WNW 4.6 mph - 0.27 in Rain , Thunderstorm Light Thunderstorms and Rain
2:53 AM 66.2 °F - 66.2 °F 100% 29.80 in 10.0 mi Variable 3.5 mph - 0.27 in Thunderstorm Mostly Cloudy
2:55 AM 66.0 °F - 64.9 °F 96% 29.73 in 10.0 mi NE 4.6 mph - 0.27 in Thunderstorm Mostly Cloudy
3:06 AM 64.9 °F - 64.9 °F 100% 29.81 in 10.0 mi NE 10.4 mph - N/A   Mostly Cloudy
3:55 AM 66.0 °F - 64.9 °F 96% 29.78 in 10.0 mi North 12.7 mph - N/A   Overcast
4:55 AM 66.0 °F - 64.9 °F 96% 29.80 in 10.0 mi East 8.1 mph - N/A   Overcast
5:55 AM 64.0 °F - 64.0 °F 100% 29.80 in 10.0 mi ESE 8.1 mph - N/A   Overcast
6:55 AM 66.0 °F - 64.0 °F 93% 29.83 in 10.0 mi NNW 4.6 mph - N/A   Overcast
7:48 AM 66.9 °F - 64.9 °F 93% 29.87 in 10.0 mi South 4.6 mph - N/A   Mostly Cloudy
7:55 AM 66.9 °F - 64.9 °F 93% 29.83 in 10.0 mi Calm Calm - N/A   Overcast
8:42 AM 70.0 °F - 64.9 °F 84% 29.85 in 10.0 mi SSE 12.7 mph - N/A   Partly Cloudy
8:55 AM 71.1 °F - 66.0 °F 84% 29.80 in 10.0 mi SSE 11.5 mph - N/A   Partly Cloudy
9:55 AM 73.9 °F - 66.0 °F 76% 29.80 in 10.0 mi South 11.5 mph 17.3 mph N/A   Clear
10:55 AM 77.0 °F - 66.0 °F 69% 29.79 in 10.0 mi SSW 10.4 mph - N/A   Clear
11:55 AM 80.1 °F 82.1 °F 66.0 °F 62% 29.80 in 10.0 mi SSW 10.4 mph - N/A   Clear
12:55 PM 82.0 °F 83.8 °F 64.9 °F 56% 29.79 in 10.0 mi SW 5.8 mph - N/A   Clear
1:55 PM 84.0 °F 85.8 °F 64.9 °F 53% 29.76 in 10.0 mi SSE 12.7 mph - N/A   Clear
2:55 PM 82.0 °F 84.1 °F 66.0 °F 58% 29.76 in 10.0 mi SSE 6.9 mph - N/A   Clear
3:55 PM 84.9 °F 88.8 °F 69.1 °F 59% 29.73 in 10.0 mi SSW 9.2 mph - N/A   Partly Cloudy
4:55 PM 84.9 °F 88.8 °F 69.1 °F 59% 29.71 in 10.0 mi SSE 8.1 mph - N/A   Scattered Clouds
5:55 PM 82.9 °F 86.5 °F 69.1 °F 63% 29.69 in 10.0 mi ESE 4.6 mph - N/A   Partly Cloudy
6:55 PM 82.0 °F 85.5 °F 69.1 °F 65% 29.70 in 10.0 mi SE 5.8 mph - N/A   Partly Cloudy
7:55 PM 80.1 °F 83.8 °F 72.0 °F 76% 29.70 in 10.0 mi SE 3.5 mph - N/A   Mostly Cloudy
8:11 PM 78.1 °F - 73.0 °F 84% 29.77 in 10.0 mi SSW 6.9 mph - 0.00 in Rain , Thunderstorm Light Thunderstorms and Rain
8:37 PM 72.0 °F - 64.0 °F 76% 29.77 in 10.0 mi NNE 12.7 mph - 0.05 in Rain , Thunderstorm Light Rain
8:55 PM 72.0 °F - 66.9 °F 84% 29.70 in 10.0 mi ENE 12.7 mph - 0.05 in Thunderstorm Partly Cloudy
9:09 PM 72.0 °F - 69.1 °F 91% 29.78 in 10.0 mi Variable 5.8 mph 21.9 mph N/A   Clear
9:55 PM 66.0 °F - 62.1 °F 87% 29.70 in 10.0 mi ENE 10.4 mph - N/A   Clear
10:55 PM 64.9 °F - 63.0 °F 93% 29.71 in 10.0 mi East 6.9 mph - N/A   Clear
11:55 PM 64.0 °F - 63.0 °F 96% 29.71 in 10.0 mi East 6.9 mph - N/A   Clear